User: anonymous   Login
Location: Caltech
(34.1382°N, 118.1253°W)
Time: 21:24:36
(UTC-08:00)
Language:

Aureole 3 Rocket - Orbit

View from above orbital plane
View from above orbital plane
View from above satellite
View from above satellite

Ground track
Ground track

The orbit data is extracted from the following two-line orbital elements,

1 12849U 81094B   14330.79825622  .00001609  00000-0  14795-3 0   499
2 12849 082.4915 162.3641 0910826 042.5609 324.2573 13.48504902616038
Epoch (UTC): 26 November 2014 19:09:29
Eccentricity: 0.0910826
inclination: 82.4915°
perigee height: 398 km
apogee height: 1757 km
right ascension of ascending node: 162.3641°
argument of perigee: 42.5609°
revolutions per day: 13.48504902
mean anomaly at epoch: 324.2573°
orbit number at epoch: 61603

The dashed part of the orbit path shows where the satellite is in the earth's shadow,  

DLR